| time (UTC) | temp F | wind direction | speed MPH | gust MPH | rain 1hr in | rain 24hr in | rain mn in | humidity % | barometer mb |
| 20260502203036 | 60 | 281 | 0.0 | 2.0 | 0.00 | 0.00 | 0.00 | 89 | 1018.8 |
| 20260502202534 | 60 | 281 | 0.0 | 4.0 | 0.00 | 0.00 | 0.00 | 89 | 1018.8 |
| 20260502202033 | 60 | 281 | 1.0 | 4.0 | 0.00 | 0.00 | 0.00 | 89 | 1018.9 |
| 20260502201533 | 61 | 281 | 1.0 | 3.0 | 0.00 | 0.00 | 0.00 | 89 | 1018.9 |
| 20260502201034 | 61 | 281 | 0.0 | 3.0 | 0.00 | 0.00 | 0.00 | 88 | 1018.8 |
| 20260502200533 | 61 | 281 | 0.0 | 3.0 | 0.00 | 0.00 | 0.00 | 87 | 1018.7 |
| 20260502200033 | 61 | 281 | 1.0 | 3.0 | 0.00 | 0.00 | 0.00 | 87 | 1018.6 |
| 20260502195534 | 61 | 281 | 0.0 | 2.0 | 0.00 | 0.00 | 0.00 | 87 | 1018.6 |
| 20260502195033 | 61 | 281 | 0.0 | 4.0 | 0.00 | 0.00 | 0.00 | 87 | 1018.5 |
| 20260502194536 | 61 | 281 | 2.0 | 4.0 | 0.00 | 0.00 | 0.00 | 87 | 1018.5 |
| 20260502194033 | 61 | 281 | 0.0 | 3.0 | 0.00 | 0.00 | 0.00 | 87 | 1018.5 |
| 20260502193532 | 61 | 281 | 0.0 | 3.0 | 0.00 | 0.00 | 0.00 | 87 | 1018.5 |
| 20260502193035 | 61 | 281 | 1.0 | 3.0 | 0.00 | 0.00 | 0.00 | 87 | 1018.4 |
| 20260502192533 | 61 | 281 | 2.0 | 4.0 | 0.00 | 0.00 | 0.00 | 86 | 1018.4 |
| 20260502192033 | 61 | 281 | 1.0 | 3.0 | 0.00 | 0.00 | 0.00 | 86 | 1018.4 |
| 20260502191532 | 61 | 281 | 0.0 | 4.0 | 0.00 | 0.00 | 0.00 | 86 | 1018.3 |
| 20260502191030 | 61 | 281 | 2.0 | 5.0 | 0.00 | 0.00 | 0.00 | 85 | 1018.3 |
| 20260502190530 | 62 | 281 | 2.0 | 5.0 | 0.00 | 0.00 | 0.00 | 85 | 1018.3 |
| 20260502190030 | 62 | 291 | 2.0 | 5.0 | 0.00 | 0.00 | 0.00 | 85 | 1018.3 |
| 20260502185532 | 62 | 323 | 1.0 | 3.0 | 0.00 | 0.00 | 0.00 | 85 | 1018.4 |
| 20260502185029 | 62 | 292 | 2.0 | 5.0 | 0.00 | 0.00 | 0.00 | 85 | 1018.3 |
| 20260502184550 | 62 | 284 | 1.0 | 5.0 | 0.00 | 0.00 | 0.00 | 85 | 1018.4 |
| 20260502184029 | 61 | 288 | 2.0 | 7.0 | 0.00 | 0.00 | 0.00 | 84 | 1018.5 |
| 20260502183529 | 61 | 284 | 5.0 | 7.0 | 0.00 | 0.00 | 0.00 | 84 | 1018.4 |
| 20260502183029 | 62 | 253 | 2.0 | 6.0 | 0.00 | 0.00 | 0.00 | 85 | 1018.4 |
| 20260502182528 | 62 | 270 | 2.0 | 6.0 | 0.00 | 0.00 | 0.00 | 85 | 1018.5 |
| 20260502182028 | 61 | 276 | 1.0 | 5.0 | 0.00 | 0.00 | 0.00 | 83 | 1018.5 |
| 20260502181531 | 62 | 276 | 2.0 | 5.0 | 0.00 | 0.00 | 0.00 | 84 | 1018.5 |
| 20260502181028 | 61 | 309 | 1.0 | 7.0 | 0.00 | 0.00 | 0.00 | 84 | 1018.6 |
| 20260502180529 | 62 | 264 | 4.0 | 8.0 | 0.00 | 0.00 | 0.00 | 84 | 1018.7 |
| 20260502164025 | 64 | 304 | 7.0 | 12.0 | 0.00 | 0.00 | 0.00 | 77 | 1018.5 |
| 20260502163524 | 64 | 273 | 6.0 | 11.0 | 0.00 | 0.00 | 0.00 | 78 | 1018.5 |
| 20260502163032 | 64 | 259 | 8.0 | 12.0 | 0.00 | 0.00 | 0.00 | 77 | 1018.5 |
| 20260502162524 | 64 | 322 | 5.0 | 12.0 | 0.00 | 0.00 | 0.00 | 79 | 1018.5 |
| 20260502162028 | 64 | 300 | 5.0 | 11.0 | 0.00 | 0.00 | 0.00 | 77 | 1018.7 |
| 20260502161524 | 64 | 237 | 7.0 | 10.0 | 0.00 | 0.00 | 0.00 | 79 | 1018.5 |
| 20260502161023 | 65 | 309 | 4.0 | 10.0 | 0.00 | 0.00 | 0.00 | 78 | 1018.5 |
| 20260502160526 | 65 | 271 | 1.0 | 8.0 | 0.00 | 0.00 | 0.00 | 78 | 1018.5 |
| 20260502152117 | 63 | 295 | 2.0 | 4.0 | 0.00 | 0.00 | 0.00 | 82 | 1019.1 |
| 20260502151517 | 62 | 327 | 2.0 | 4.0 | 0.00 | 0.00 | 0.00 | 84 | 1019.2 |
| 20260502151017 | 62 | 315 | 2.0 | 9.0 | 0.00 | 0.00 | 0.00 | 85 | 1019.3 |
| 20260502150517 | 62 | 250 | 3.0 | 9.0 | 0.00 | 0.00 | 0.00 | 86 | 1019.5 |
| 20260502130511 | 62 | 215 | 3.0 | 9.0 | 0.00 | 0.00 | 0.00 | 85 | 1020.2 |
| 20260502123512 | 62 | 296 | 3.0 | 11.0 | 0.00 | 0.00 | 0.00 | 83 | 1020.2 |
| 20260502123009 | 63 | 240 | 7.0 | 11.0 | 0.00 | 0.00 | 0.00 | 83 | 1020.0 |
| 20260502122509 | 63 | 248 | 4.0 | 11.0 | 0.00 | 0.00 | 0.00 | 82 | 1020.0 |
| 20260502122009 | 63 | 262 | 3.0 | 8.0 | 0.00 | 0.00 | 0.00 | 81 | 1019.9 |
| 20260502121511 | 63 | 292 | 4.0 | 8.0 | 0.00 | 0.00 | 0.00 | 81 | 1019.8 |
| 20260502121008 | 63 | 246 | 4.0 | 7.0 | 0.00 | 0.00 | 0.00 | 82 | 1019.7 |
| 20260502120508 | 62 | 284 | 1.0 | 7.0 | 0.00 | 0.00 | 0.00 | 82 | 1019.8 |
| 20260502115507 | 62 | 255 | 4.0 | 9.0 | 0.00 | 0.00 | 0.00 | 82 | 1019.8 |
| 20260502115007 | 63 | 261 | 4.0 | 8.0 | 0.00 | 0.00 | 0.00 | 82 | 1019.9 |
| 20260502114512 | 63 | 222 | 5.0 | 9.0 | 0.00 | 0.00 | 0.00 | 82 | 1020.0 |
| 20260502114006 | 63 | 250 | 6.0 | 10.0 | 0.00 | 0.00 | 0.00 | 81 | 1020.0 |
| 20260502113507 | 63 | 268 | 6.0 | 10.0 | 0.00 | 0.00 | 0.00 | 81 | 1019.9 |
| 20260502113007 | 63 | 271 | 6.0 | 10.0 | 0.00 | 0.00 | 0.00 | 81 | 1019.9 |
| 20260502112506 | 64 | 291 | 5.0 | 11.0 | 0.00 | 0.00 | 0.00 | 82 | 1020.0 |
| 20260502112009 | 64 | 252 | 5.0 | 11.0 | 0.00 | 0.00 | 0.00 | 82 | 1019.9 |
| 20260502111505 | 63 | 269 | 6.0 | 11.0 | 0.00 | 0.00 | 0.00 | 83 | 1020.0 |
| 20260502111005 | 63 | 267 | 7.0 | 10.0 | 0.00 | 0.00 | 0.00 | 83 | 1019.9 |
| 20260502110505 | 63 | 274 | 5.0 | 10.0 | 0.00 | 0.00 | 0.00 | 84 | 1019.8 |
| 20260502110003 | 63 | 252 | 3.0 | 7.0 | 0.00 | 0.00 | 0.00 | 84 | 1019.9 |
| 20260502105503 | 63 | 266 | 4.0 | 8.0 | 0.00 | 0.00 | 0.00 | 84 | 1019.9 |
| 20260502105003 | 63 | 269 | 3.0 | 8.0 | 0.00 | 0.00 | 0.00 | 84 | 1020.0 |
| 20260502104502 | 63 | 263 | 3.0 | 10.0 | 0.00 | 0.00 | 0.00 | 83 | 1020.0 |
| 20260502104002 | 63 | 245 | 7.0 | 10.0 | 0.00 | 0.00 | 0.00 | 83 | 1020.0 |
| 20260502103502 | 63 | 247 | 5.0 | 9.0 | 0.00 | 0.00 | 0.00 | 82 | 1020.0 |
| 20260502103003 | 63 | 301 | 5.0 | 11.0 | 0.00 | 0.00 | 0.00 | 83 | 1020.0 |
| 20260502102601 | 63 | 298 | 6.0 | 11.0 | 0.00 | 0.00 | 0.00 | 84 | 1019.9 |
| 20260502102100 | 63 | 241 | 5.0 | 10.0 | 0.00 | 0.00 | 0.00 | 85 | 1019.8 |
| 20260502101637 | 62 | 281 | 3.0 | 8.0 | 0.00 | 0.00 | 0.00 | 86 | 1019.7 |
| 20260502101103 | 62 | 270 | 4.0 | 7.0 | 0.00 | 0.00 | 0.00 | 86 | 1019.7 |
| 20260502100558 | 62 | 265 | 3.0 | 7.0 | 0.00 | 0.00 | 0.00 | 86 | 1019.8 |
| 20260502100119 | 62 | 252 | 2.0 | 8.0 | 0.00 | 0.00 | 0.00 | 85 | 1019.9 |
| 20260502091049 | 62 | 276 | 0.0 | 4.0 | 0.00 | 0.00 | 0.00 | 83 | 1019.5 |
| 20260502090547 | 62 | 276 | 1.0 | 7.0 | 0.00 | 0.00 | 0.00 | 83 | 1019.6 |
| 20260502071520 | 56 | 105 | 9.0 | 12.0 | 0.00 | 0.00 | 0.00 | 84 | 1018.8 |
| 20260502071020 | 56 | 119 | 9.0 | 13.0 | 0.00 | 0.00 | 0.00 | 84 | 1018.8 |
| 20260502070519 | 56 | 101 | 10.0 | 14.0 | 0.00 | 0.00 | 0.00 | 85 | 1019.0 |
| 20260502070025 | 56 | 105 | 10.0 | 14.0 | 0.00 | 0.00 | 0.00 | 85 | 1018.8 |
| 20260502065517 | 56 | 117 | 8.0 | 13.0 | 0.00 | 0.00 | 0.00 | 85 | 1018.9 |
| 20260502065016 | 56 | 113 | 7.0 | 10.0 | 0.00 | 0.00 | 0.00 | 85 | 1019.0 |
| 20260502064515 | 56 | 99 | 6.0 | 8.0 | 0.00 | 0.00 | 0.00 | 85 | 1019.1 |
| 20260502064015 | 56 | 127 | 6.0 | 8.0 | 0.00 | 0.00 | 0.00 | 84 | 1019.1 |
| 20260502063515 | 56 | 113 | 6.0 | 8.0 | 0.00 | 0.00 | 0.00 | 84 | 1019.1 |
| 20260502063015 | 56 | 117 | 6.0 | 9.0 | 0.00 | 0.00 | 0.00 | 84 | 1019.0 |
| 20260502062514 | 56 | 105 | 6.0 | 10.0 | 0.00 | 0.00 | 0.00 | 84 | 1018.9 |
| 20260502062020 | 56 | 110 | 7.0 | 10.0 | 0.00 | 0.00 | 0.00 | 85 | 1018.8 |
| 20260502061514 | 56 | 118 | 7.0 | 10.0 | 0.00 | 0.00 | 0.00 | 85 | 1018.8 |
| 20260502061013 | 56 | 101 | 8.0 | 10.0 | 0.00 | 0.00 | 0.00 | 85 | 1018.7 |
| 20260502060513 | 56 | 114 | 7.0 | 10.0 | 0.00 | 0.00 | 0.00 | 85 | 1018.7 |
| 20260502060013 | 56 | 123 | 8.0 | 11.0 | 0.00 | 0.00 | 0.00 | 85 | 1018.7 |
| 20260502055515 | 56 | 119 | 9.0 | 11.0 | 0.00 | 0.00 | 0.00 | 85 | 1018.6 |
| 20260502055012 | 56 | 111 | 8.0 | 10.0 | 0.00 | 0.00 | 0.00 | 85 | 1018.7 |
| 20260502054511 | 56 | 107 | 7.0 | 9.0 | 0.00 | 0.00 | 0.00 | 84 | 1018.8 |
| 20260502054009 | 56 | 105 | 6.0 | 9.0 | 0.00 | 0.00 | 0.00 | 84 | 1018.7 |
| 20260502053509 | 57 | 103 | 6.0 | 9.0 | 0.00 | 0.00 | 0.00 | 84 | 1018.6 |
| 20260502053009 | 57 | 104 | 6.0 | 9.0 | 0.00 | 0.00 | 0.00 | 84 | 1018.7 |
| 20260502052609 | 57 | 119 | 7.0 | 9.0 | 0.00 | 0.00 | 0.00 | 84 | 1018.6 |
| 20260502052009 | 57 | 124 | 7.0 | 9.0 | 0.00 | 0.00 | 0.00 | 84 | 1018.6 |
| 20260502051521 | 57 | 124 | 6.0 | 9.0 | 0.00 | 0.00 | 0.00 | 83 | 1018.5 |
| 20260502051008 | 57 | 121 | 7.0 | 9.0 | 0.00 | 0.00 | 0.00 | 83 | 1018.5 |
| 20260502050508 | 57 | 98 | 6.0 | 9.0 | 0.00 | 0.00 | 0.00 | 84 | 1018.6 |
| 20260502050009 | 57 | 117 | 7.0 | 9.0 | 0.00 | 0.00 | 0.00 | 83 | 1018.6 |
| 20260502045508 | 57 | 121 | 7.0 | 10.0 | 0.00 | 0.00 | 0.00 | 84 | 1018.7 |
| 20260502045008 | 57 | 121 | 7.0 | 10.0 | 0.00 | 0.00 | 0.00 | 84 | 1018.7 |
| 20260502044510 | 56 | 102 | 8.0 | 11.0 | 0.00 | 0.00 | 0.00 | 84 | 1018.6 |
| 20260502044007 | 56 | 134 | 8.0 | 11.0 | 0.00 | 0.00 | 0.00 | 84 | 1018.6 |
| 20260502043506 | 56 | 109 | 7.0 | 10.0 | 0.00 | 0.00 | 0.00 | 84 | 1018.7 |
| 20260502043013 | 56 | 105 | 8.0 | 11.0 | 0.00 | 0.00 | 0.00 | 84 | 1018.7 |
| 20260502042506 | 56 | 109 | 7.0 | 11.0 | 0.00 | 0.00 | 0.00 | 84 | 1018.8 |
| 20260502042006 | 56 | 123 | 8.0 | 10.0 | 0.00 | 0.00 | 0.00 | 84 | 1018.8 |
| 20260502041506 | 56 | 112 | 7.0 | 9.0 | 0.00 | 0.00 | 0.00 | 84 | 1018.8 |
| 20260502041005 | 56 | 111 | 6.0 | 9.0 | 0.00 | 0.00 | 0.00 | 83 | 1018.8 |
| 20260502040505 | 57 | 109 | 7.0 | 9.0 | 0.00 | 0.00 | 0.00 | 83 | 1018.7 |
| 20260502040004 | 57 | 96 | 6.0 | 9.0 | 0.00 | 0.00 | 0.00 | 82 | 1018.7 |
| 20260502035504 | 57 | 115 | 7.0 | 9.0 | 0.00 | 0.00 | 0.00 | 83 | 1018.7 |
| 20260502035006 | 57 | 105 | 6.0 | 9.0 | 0.00 | 0.00 | 0.00 | 83 | 1018.6 |
| 20260502034504 | 57 | 119 | 7.0 | 9.0 | 0.00 | 0.00 | 0.00 | 83 | 1018.7 |
| 20260502034003 | 57 | 124 | 6.0 | 10.0 | 0.00 | 0.00 | 0.00 | 83 | 1018.6 |
| 20260502033504 | 57 | 112 | 8.0 | 10.0 | 0.00 | 0.00 | 0.00 | 83 | 1018.6 |
| 20260502033004 | 57 | 108 | 8.0 | 11.0 | 0.00 | 0.00 | 0.00 | 83 | 1018.5 |
| 20260502032502 | 57 | 110 | 7.0 | 10.0 | 0.00 | 0.00 | 0.00 | 83 | 1018.5 |
| 20260502032002 | 57 | 120 | 6.0 | 11.0 | 0.00 | 0.00 | 0.00 | 83 | 1018.5 |
| 20260502031502 | 57 | 110 | 8.0 | 11.0 | 0.00 | 0.00 | 0.00 | 83 | 1018.5 |
| 20260502031002 | 57 | 115 | 9.0 | 11.0 | 0.00 | 0.00 | 0.00 | 83 | 1018.5 |
| 20260502030501 | 57 | 121 | 8.0 | 11.0 | 0.00 | 0.00 | 0.00 | 82 | 1018.5 |
| 20260502025558 | 57 | 126 | 7.0 | 10.0 | 0.00 | 0.00 | 0.00 | 82 | 1018.7 |
| 20260502025057 | 57 | 109 | 7.0 | 11.0 | 0.00 | 0.00 | 0.00 | 82 | 1018.8 |
| 20260502024557 | 57 | 88 | 7.0 | 11.0 | 0.00 | 0.00 | 0.00 | 82 | 1018.9 |
| 20260502024057 | 57 | 117 | 7.0 | 11.0 | 0.00 | 0.00 | 0.00 | 82 | 1018.9 |
| 20260502023556 | 57 | 111 | 7.0 | 11.0 | 0.00 | 0.00 | 0.00 | 82 | 1019.0 |
| 20260502023110 | 57 | 113 | 8.0 | 12.0 | 0.00 | 0.00 | 0.00 | 82 | 1019.0 |
| 20260502022554 | 57 | 117 | 8.0 | 12.0 | 0.00 | 0.00 | 0.00 | 81 | 1019.2 |
| 20260502022054 | 57 | 112 | 8.0 | 11.0 | 0.00 | 0.00 | 0.00 | 81 | 1019.3 |
| 20260502021553 | 57 | 114 | 8.0 | 12.0 | 0.00 | 0.00 | 0.00 | 81 | 1019.2 |
| 20260502021055 | 57 | 117 | 9.0 | 12.0 | 0.00 | 0.00 | 0.00 | 81 | 1019.3 |
| 20260502020552 | 57 | 106 | 9.0 | 12.0 | 0.00 | 0.00 | 0.00 | 81 | 1019.3 |
| 20260502020052 | 57 | 111 | 8.0 | 11.0 | 0.00 | 0.00 | 0.00 | 81 | 1019.4 |
| 20260502015549 | 57 | 115 | 9.0 | 11.0 | 0.00 | 0.00 | 0.00 | 81 | 1019.4 |
| 20260502015050 | 58 | 128 | 9.0 | 11.0 | 0.00 | 0.00 | 0.00 | 81 | 1019.5 |
| 20260502014549 | 58 | 128 | 7.0 | 11.0 | 0.00 | 0.00 | 0.00 | 82 | 1019.5 |
| 20260502014053 | 58 | 117 | 7.0 | 12.0 | 0.00 | 0.00 | 0.00 | 82 | 1019.5 |
| 20260502013548 | 58 | 121 | 8.0 | 13.0 | 0.00 | 0.00 | 0.00 | 82 | 1019.4 |
| 20260502013048 | 58 | 109 | 10.0 | 13.0 | 0.00 | 0.00 | 0.00 | 82 | 1019.4 |
| 20260502012548 | 58 | 119 | 10.0 | 13.0 | 0.00 | 0.00 | 0.00 | 83 | 1019.5 |
| 20260502012047 | 58 | 105 | 9.0 | 13.0 | 0.00 | 0.00 | 0.00 | 83 | 1019.5 |
| 20260502011554 | 57 | 117 | 10.0 | 13.0 | 0.00 | 0.00 | 0.00 | 83 | 1019.5 |
| 20260502011044 | 57 | 105 | 8.0 | 12.0 | 0.00 | 0.00 | 0.00 | 83 | 1019.6 |
| 20260502010547 | 57 | 92 | 9.0 | 12.0 | 0.00 | 0.00 | 0.00 | 84 | 1019.7 |
| 20260502010043 | 58 | 130 | 9.0 | 12.0 | 0.00 | 0.00 | 0.00 | 83 | 1019.7 |
| 20260502005542 | 58 | 119 | 10.0 | 12.0 | 0.00 | 0.00 | 0.00 | 83 | 1019.8 |
| 20260502005040 | 58 | 120 | 8.0 | 10.0 | 0.00 | 0.00 | 0.00 | 83 | 1019.9 |
| 20260502004548 | 59 | 117 | 6.0 | 9.0 | 0.00 | 0.00 | 0.00 | 83 | 1019.9 |
| 20260502004039 | 59 | 119 | 6.0 | 10.0 | 0.00 | 0.00 | 0.00 | 84 | 1019.9 |
| 20260502003542 | 59 | 118 | 6.0 | 10.0 | 0.00 | 0.00 | 0.00 | 84 | 1019.9 |
| 20260502003041 | 59 | 111 | 7.0 | 10.0 | 0.00 | 0.00 | 0.00 | 84 | 1020.0 |
| 20260502002536 | 58 | 109 | 6.0 | 9.0 | 0.00 | 0.00 | 0.00 | 85 | 1020.0 |
| 20260502002036 | 58 | 113 | 6.0 | 10.0 | 0.00 | 0.00 | 0.00 | 85 | 1020.0 |
| 20260502001535 | 58 | 120 | 7.0 | 10.0 | 0.00 | 0.00 | 0.00 | 86 | 1020.1 |
| 20260502001034 | 59 | 119 | 7.0 | 10.0 | 0.00 | 0.00 | 0.00 | 86 | 1020.3 |
| 20260502000533 | 59 | 119 | 8.0 | 10.0 | 0.00 | 0.00 | 0.00 | 85 | 1020.3 |
| 20260502000032 | 59 | 118 | 7.0 | 9.0 | 0.00 | 0.00 | 0.00 | 86 | 1020.4 |
| 20260501235531 | 59 | 115 | 7.0 | 9.0 | 0.00 | 0.00 | 0.00 | 86 | 1020.4 |
| 20260501235029 | 59 | 118 | 6.0 | 9.0 | 0.00 | 0.00 | 0.00 | 86 | 1020.4 |
| 20260501234529 | 60 | 115 | 6.0 | 8.0 | 0.00 | 0.00 | 0.00 | 87 | 1020.4 |
| 20260501234028 | 60 | 105 | 5.0 | 9.0 | 0.00 | 0.00 | 0.00 | 87 | 1020.5 |
| 20260501233527 | 60 | 110 | 6.0 | 10.0 | 0.00 | 0.00 | 0.00 | 88 | 1020.5 |
| 20260501233027 | 60 | 123 | 7.0 | 9.0 | 0.00 | 0.00 | 0.00 | 88 | 1020.6 |
| 20260501232529 | 59 | 117 | 6.0 | 9.0 | 0.00 | 0.00 | 0.00 | 89 | 1020.5 |
| 20260501232027 | 59 | 93 | 6.0 | 9.0 | 0.00 | 0.00 | 0.00 | 90 | 1020.6 |
| 20260501231525 | 59 | 141 | 6.0 | 8.0 | 0.00 | 0.00 | 0.00 | 92 | 1020.6 |
| 20260501231024 | 59 | 117 | 5.0 | 8.0 | 0.00 | 0.00 | 0.00 | 93 | 1020.5 |
| 20260501230522 | 59 | 108 | 6.0 | 8.0 | 0.00 | 0.00 | 0.00 | 94 | 1020.6 |
| 20260501230021 | 59 | 113 | 3.0 | 4.0 | 0.00 | 0.00 | 0.00 | 95 | 1020.7 |
| 20260501225525 | 59 | 84 | 2.0 | 4.0 | 0.00 | 0.00 | 0.00 | 95 | 1020.7 |
| 20260501225019 | 59 | 107 | 3.0 | 5.0 | 0.00 | 0.00 | 0.00 | 95 | 1020.7 |
| 20260501224520 | 59 | 94 | 3.0 | 6.0 | 0.00 | 0.00 | 0.00 | 95 | 1020.7 |
| 20260501224022 | 59 | 96 | 3.0 | 6.0 | 0.00 | 0.00 | 0.00 | 95 | 1020.7 |
| 20260501223522 | 60 | 247 | 1.0 | 2.0 | 0.00 | 0.00 | 0.00 | 96 | 1020.8 |
| 20260501223028 | 60 | 247 | 0.0 | 2.0 | 0.00 | 0.00 | 0.00 | 96 | 1020.7 |
| 20260501222521 | 60 | 247 | 0.0 | 3.0 | 0.00 | 0.00 | 0.00 | 95 | 1020.6 |
| 20260501222018 | 60 | 247 | 1.0 | 3.0 | 0.00 | 0.00 | 0.00 | 95 | 1020.4 |
| 20260501221520 | 60 | 247 | 1.0 | 4.0 | 0.00 | 0.00 | 0.00 | 95 | 1020.3 |
| 20260501221019 | 60 | 247 | 1.0 | 4.0 | 0.00 | 0.00 | 0.00 | 95 | 1020.3 |
| 20260501220519 | 60 | 247 | 2.0 | 4.0 | 0.00 | 0.00 | 0.00 | 95 | 1020.1 |
| 20260501220020 | 60 | 247 | 0.0 | 2.0 | 0.00 | 0.00 | 0.00 | 95 | 1020.1 |
| 20260501215515 | 60 | 247 | 0.0 | 3.0 | 0.00 | 0.00 | 0.00 | 95 | 1020.1 |
| 20260501215017 | 60 | 247 | 0.0 | 3.0 | 0.00 | 0.00 | 0.00 | 95 | 1020.1 |
| 20260501214515 | 60 | 247 | 0.0 | 1.0 | 0.00 | 0.00 | 0.00 | 95 | 1019.9 |
| 20260501214014 | 60 | 247 | 0.0 | 2.0 | 0.00 | 0.00 | 0.00 | 95 | 1020.0 |
| 20260501213514 | 60 | 247 | 0.0 | 4.0 | 0.00 | 0.00 | 0.00 | 95 | 1020.0 |
| 20260501213014 | 60 | 247 | 2.0 | 4.0 | 0.00 | 0.00 | 0.00 | 95 | 1020.0 |
| 20260501212513 | 60 | 247 | 0.0 | 2.0 | 0.00 | 0.00 | 0.00 | 95 | 1020.1 |
| 20260501212013 | 60 | 247 | 1.0 | 2.0 | 0.00 | 0.00 | 0.00 | 95 | 1020.1 |
| 20260501211513 | 60 | 247 | 0.0 | 4.0 | 0.00 | 0.00 | 0.00 | 95 | 1020.1 |
| 20260501211013 | 60 | 247 | 1.0 | 4.0 | 0.00 | 0.00 | 0.00 | 95 | 1020.1 |
| 20260501210513 | 60 | 247 | 2.0 | 4.0 | 0.00 | 0.00 | 0.00 | 95 | 1020.0 |
| 20260501210015 | 60 | 247 | 2.0 | 6.0 | 0.00 | 0.00 | 0.00 | 95 | 1020.1 |
| 20260501205512 | 60 | 242 | 3.0 | 6.0 | 0.00 | 0.00 | 0.00 | 95 | 1020.0 |
| 20260501205012 | 60 | 288 | 2.0 | 5.0 | 0.00 | 0.00 | 0.00 | 94 | 1020.0 |
| 20260501204512 | 60 | 288 | 2.0 | 5.0 | 0.00 | 0.00 | 0.00 | 94 | 1020.0 |
| 20260501204011 | 60 | 285 | 2.0 | 4.0 | 0.00 | 0.00 | 0.00 | 94 | 1019.9 |
| 20260501203511 | 60 | 286 | 2.0 | 5.0 | 0.00 | 0.00 | 0.00 | 94 | 1019.8 |